AAL651 KDFW-KSMF

Flight info

Callsign AAL651
Flight time 3h 19m
Altitude 36000
Route HRPER3 HULZE FTI J58 MLF TATOO CRASY SLMMR5
Aircraft A321/M-SDE3FGHIRWY/LB1

Departure

Time 2026-05-08 18:39
Airport Dallas Fort Worth International Airport (KDFW)

Arrival

Time 2026-05-08 21:58
Airport Sacramento International Airport (KSMF)
Time Latitude Longitude Altitude Speed Heading
2026-05-08 17:40 32.90001 -97.04222 627 ft 0 kts 192°
2026-05-08 18:19 32.90004 -97.04221 616 ft 3 kts 191°
2026-05-08 18:19 32.90025 -97.04219 616 ft 4 kts 153°
2026-05-08 18:19 32.90037 -97.04230 616 ft 4 kts 125°
2026-05-08 18:20 32.90054 -97.04255 616 ft 4 kts 124°
2026-05-08 18:20 32.90061 -97.04273 616 ft 4 kts 97°
2026-05-08 18:20 32.90064 -97.04299 616 ft 1 kts 109°
2026-05-08 18:26 32.90065 -97.04297 616 ft 1 kts 94°
2026-05-08 18:26 32.90071 -97.04295 616 ft 1 kts 27°
2026-05-08 18:27 32.90076 -97.04305 616 ft 2 kts 288°
2026-05-08 18:27 32.90078 -97.04329 629 ft 6 kts 279°
2026-05-08 18:27 32.90084 -97.04398 616 ft 7 kts 270°
2026-05-08 18:27 32.90084 -97.04462 616 ft 8 kts 270°
2026-05-08 18:28 32.90084 -97.04535 621 ft 9 kts 270°
2026-05-08 18:28 32.90084 -97.04603 621 ft 7 kts 270°
2026-05-08 18:28 32.90084 -97.04663 625 ft 8 kts 270°
2026-05-08 18:28 32.90082 -97.04733 623 ft 9 kts 275°
2026-05-08 18:29 32.90130 -97.04765 621 ft 9 kts 358°
2026-05-08 18:29 32.90197 -97.04763 625 ft 10 kts
2026-05-08 18:29 32.90272 -97.04763 624 ft 11 kts 359°
2026-05-08 18:29 32.90355 -97.04763 616 ft 13 kts 360°
2026-05-08 18:30 32.90447 -97.04763 622 ft 14 kts
2026-05-08 18:30 32.90545 -97.04762 616 ft 15 kts
2026-05-08 18:30 32.90651 -97.04761 622 ft 16 kts
2026-05-08 18:30 32.90762 -97.04761 618 ft 16 kts
2026-05-08 18:31 32.90872 -97.04760 620 ft 14 kts
2026-05-08 18:31 32.90914 -97.04679 620 ft 13 kts 92°
2026-05-08 18:31 32.90912 -97.04568 624 ft 14 kts 90°
2026-05-08 18:31 32.90912 -97.04451 626 ft 15 kts 90°
2026-05-08 18:32 32.90911 -97.04325 626 ft 16 kts 90°
2026-05-08 18:32 32.90910 -97.04191 626 ft 17 kts 90°
2026-05-08 18:32 32.90910 -97.04051 626 ft 17 kts 90°
2026-05-08 18:32 32.90909 -97.03904 615 ft 18 kts 90°
2026-05-08 18:33 32.90908 -97.03752 621 ft 19 kts 90°
2026-05-08 18:33 32.90908 -97.03595 620 ft 19 kts 90°
2026-05-08 18:33 32.90907 -97.03447 623 ft 18 kts 90°
2026-05-08 18:33 32.90907 -97.03313 624 ft 15 kts 90°
2026-05-08 18:34 32.90917 -97.03197 625 ft 13 kts 46°
2026-05-08 18:34 32.91006 -97.03186 621 ft 14 kts 360°
2026-05-08 18:34 32.91104 -97.03185 619 ft 15 kts
2026-05-08 18:34 32.91208 -97.03185 621 ft 15 kts 360°
2026-05-08 18:35 32.91318 -97.03185 618 ft 16 kts
2026-05-08 18:35 32.91434 -97.03184 620 ft 17 kts 360°
2026-05-08 18:35 32.91536 -97.03184 622 ft 12 kts
2026-05-08 18:35 32.91565 -97.03123 623 ft 8 kts 89°
2026-05-08 18:36 32.91565 -97.03116 616 ft 0 kts 91°
2026-05-08 18:36 32.91565 -97.03109 616 ft 1 kts 91°
2026-05-08 18:37 32.91564 -97.03092 616 ft 3 kts 91°
2026-05-08 18:37 32.91564 -97.03060 616 ft 5 kts 91°
2026-05-08 18:37 32.91549 -97.03005 616 ft 10 kts 137°
2026-05-08 18:37 32.91454 -97.02991 622 ft 18 kts 180°
2026-05-08 18:38 32.91195 -97.02994 621 ft 69 kts 180°
2026-05-08 18:38 32.90486 -97.02996 621 ft 132 kts 180°
2026-05-08 18:38 32.89405 -97.03001 639 ft 178 kts 180°
2026-05-08 18:38 32.88109 -97.03026 1018 ft 195 kts 182°
2026-05-08 18:39 32.86688 -97.03090 1518 ft 208 kts 183°
2026-05-08 18:39 32.85225 -97.03199 2071 ft 217 kts 187°
2026-05-08 18:39 32.83762 -97.03759 2697 ft 230 kts 205°
2026-05-08 18:39 32.82311 -97.04702 3050 ft 246 kts 210°
2026-05-08 18:40 32.80825 -97.05758 3698 ft 251 kts 210°
2026-05-08 18:40 32.79304 -97.06814 4454 ft 254 kts 211°
2026-05-08 18:40 32.77981 -97.08219 5205 ft 258 kts 234°
2026-05-08 18:40 32.77205 -97.10134 5950 ft 260 kts 255°
2026-05-08 18:41 32.76855 -97.12241 6704 ft 260 kts 258°
2026-05-08 18:41 32.76598 -97.14374 7409 ft 262 kts 267°
2026-05-08 18:41 32.76691 -97.16527 7885 ft 273 kts 273°
2026-05-08 18:41 32.76842 -97.18801 8517 ft 277 kts 272°
2026-05-08 18:42 32.76985 -97.21087 9153 ft 279 kts 272°
2026-05-08 18:42 32.77126 -97.23357 9764 ft 281 kts 274°
2026-05-08 18:42 32.77519 -97.25664 10203 ft 294 kts 283°
2026-05-08 18:42 32.78093 -97.28082 10335 ft 313 kts 284°
2026-05-08 18:43 32.78711 -97.30627 10596 ft 326 kts 284°
2026-05-08 18:43 32.79348 -97.33233 11113 ft 330 kts 284°
2026-05-08 18:43 32.79992 -97.35869 11709 ft 332 kts 284°
2026-05-08 18:43 32.80636 -97.38520 12341 ft 333 kts 284°
2026-05-08 18:44 32.81275 -97.41175 12973 ft 334 kts 283°
2026-05-08 18:44 32.81913 -97.43837 13601 ft 334 kts 283°
2026-05-08 18:44 32.82547 -97.46485 14182 ft 336 kts 283°
2026-05-08 18:44 32.83191 -97.49163 14727 ft 338 kts 283°
2026-05-08 18:45 32.83839 -97.51857 15283 ft 341 kts 283°
2026-05-08 18:45 32.84493 -97.54582 15881 ft 343 kts 283°
2026-05-08 18:45 32.85143 -97.57314 16456 ft 343 kts 283°
2026-05-08 18:45 32.85799 -97.60048 16988 ft 344 kts 283°
2026-05-08 18:46 32.86456 -97.62791 17491 ft 345 kts 283°
2026-05-08 18:46 32.87110 -97.65535 17972 ft 347 kts 283°
2026-05-08 18:46 32.87772 -97.68301 18463 ft 347 kts 283°
2026-05-08 18:46 32.88428 -97.71077 18928 ft 349 kts 282°
2026-05-08 18:47 32.89131 -97.73855 19409 ft 353 kts 287°
2026-05-08 18:47 32.90022 -97.76578 19877 ft 355 kts 287°
2026-05-08 18:47 32.90923 -97.79321 20336 ft 356 kts 287°
2026-05-08 18:47 32.91811 -97.82032 20768 ft 357 kts 287°
2026-05-08 18:48 32.92716 -97.84790 21206 ft 359 kts 287°
2026-05-08 18:48 32.93625 -97.87562 21639 ft 360 kts 287°
2026-05-08 18:48 32.94535 -97.90347 22062 ft 361 kts 287°
2026-05-08 18:48 32.95447 -97.93141 22460 ft 363 kts 287°
2026-05-08 18:49 32.96362 -97.95949 22863 ft 364 kts 287°
2026-05-08 18:49 32.97281 -97.98768 23266 ft 366 kts 287°
2026-05-08 18:49 32.98208 -98.01597 23651 ft 367 kts 287°
2026-05-08 18:49 32.99139 -98.04440 23978 ft 370 kts 287°
2026-05-08 18:50 33.00075 -98.07309 24300 ft 372 kts 287°
2026-05-08 18:50 33.01016 -98.10200 24658 ft 374 kts 287°
2026-05-08 18:50 33.01960 -98.13101 25012 ft 376 kts 287°
2026-05-08 18:50 33.02910 -98.16019 25346 ft 378 kts 287°
2026-05-08 18:51 33.03863 -98.18953 25660 ft 380 kts 286°
2026-05-08 18:51 33.04818 -98.21900 25984 ft 382 kts 286°
2026-05-08 18:51 33.05778 -98.24864 26305 ft 384 kts 286°
2026-05-08 18:51 33.06744 -98.27838 26624 ft 385 kts 286°
2026-05-08 18:52 33.07704 -98.30789 26914 ft 387 kts 286°
2026-05-08 18:52 33.08682 -98.33792 27209 ft 389 kts 285°
2026-05-08 18:52 33.09676 -98.36845 27503 ft 391 kts 286°
2026-05-08 18:52 33.10652 -98.39842 27793 ft 392 kts 285°
2026-05-08 18:53 33.11641 -98.42884 28076 ft 394 kts 285°
2026-05-08 18:53 33.12632 -98.45944 28346 ft 396 kts 285°
2026-05-08 18:53 33.13627 -98.49022 28619 ft 398 kts 285°
2026-05-08 18:53 33.14627 -98.52117 28905 ft 399 kts 285°
2026-05-08 18:54 33.15624 -98.55216 29178 ft 401 kts 285°
2026-05-08 18:54 33.16624 -98.58327 29445 ft 403 kts 285°
2026-05-08 18:54 33.17632 -98.61454 29711 ft 404 kts 285°
2026-05-08 18:54 33.18646 -98.64592 29885 ft 406 kts 285°
2026-05-08 18:55 33.20618 -98.70680 29933 ft 386 kts 285°
2026-05-08 18:55 33.21576 -98.73658 29934 ft 384 kts 285°
2026-05-08 18:56 33.23476 -98.79600 29934 ft 383 kts 285°
2026-05-08 18:56 33.25374 -98.85541 29933 ft 383 kts 285°
2026-05-08 18:57 33.27275 -98.91499 29934 ft 384 kts 285°
2026-05-08 18:57 33.29177 -98.97451 29932 ft 383 kts 285°
2026-05-08 18:58 33.31076 -99.03416 29929 ft 384 kts 285°
2026-05-08 18:58 33.32972 -99.09399 29925 ft 384 kts 285°
2026-05-08 18:59 33.34855 -99.15355 29918 ft 386 kts 286°
2026-05-08 18:59 33.36755 -99.21359 29916 ft 386 kts 286°
2026-05-08 19:00 33.38334 -99.26359 29912 ft 386 kts 286°
2026-05-08 19:00 33.40554 -99.33406 29910 ft 387 kts 286°
2026-05-08 19:01 33.42450 -99.39437 29912 ft 387 kts 286°
2026-05-08 19:01 33.44340 -99.45436 29913 ft 388 kts 287°
2026-05-08 19:02 33.46242 -99.51493 29912 ft 389 kts 287°
2026-05-08 19:02 33.48027 -99.57605 29911 ft 388 kts 285°
2026-05-08 19:03 33.49701 -99.63767 29908 ft 389 kts 285°
2026-05-08 19:03 33.51382 -99.69940 29907 ft 390 kts 285°
2026-05-08 19:04 33.53077 -99.76082 29908 ft 390 kts 285°
2026-05-08 19:04 33.54799 -99.82259 29908 ft 391 kts 286°
2026-05-08 19:05 33.56516 -99.88441 29908 ft 391 kts 286°
2026-05-08 19:05 33.58222 -99.94630 29908 ft 391 kts 286°
2026-05-08 19:06 33.59921 -100.00793 29910 ft 392 kts 286°
2026-05-08 19:06 33.61624 -100.07014 29907 ft 392 kts 286°
2026-05-08 19:07 33.63327 -100.13232 29905 ft 392 kts 286°
2026-05-08 19:07 33.64745 -100.18410 29907 ft 393 kts 286°
2026-05-08 19:08 33.66791 -100.24508 29910 ft 395 kts 295°
2026-05-08 19:08 33.69355 -100.30360 29911 ft 395 kts 295°
2026-05-08 19:09 33.71889 -100.36180 29910 ft 396 kts 295°
2026-05-08 19:09 33.74430 -100.42044 29912 ft 396 kts 295°
2026-05-08 19:10 33.76984 -100.47924 29918 ft 396 kts 295°
2026-05-08 19:10 33.79544 -100.53814 29926 ft 396 kts 295°
2026-05-08 19:11 33.82090 -100.59696 29929 ft 396 kts 295°
2026-05-08 19:11 33.84634 -100.65590 29926 ft 396 kts 295°
2026-05-08 19:12 33.87161 -100.71445 29926 ft 397 kts 295°
2026-05-08 19:12 33.89709 -100.77352 29928 ft 397 kts 295°
2026-05-08 19:13 33.92249 -100.83259 29929 ft 397 kts 295°
2026-05-08 19:13 33.94788 -100.89185 29932 ft 398 kts 295°
2026-05-08 19:14 33.97307 -100.95068 29933 ft 398 kts 295°
2026-05-08 19:14 33.99845 -101.01004 29933 ft 399 kts 295°
2026-05-08 19:15 34.02388 -101.06946 29945 ft 398 kts 296°
2026-05-08 19:15 34.04926 -101.12894 29974 ft 398 kts 296°
2026-05-08 19:16 34.07437 -101.18793 29969 ft 397 kts 296°
2026-05-08 19:16 34.09958 -101.24732 29962 ft 397 kts 296°
2026-05-08 19:17 34.12472 -101.30669 29954 ft 397 kts 296°
2026-05-08 19:17 34.14991 -101.36614 29949 ft 398 kts 296°
2026-05-08 19:18 34.17507 -101.42568 29955 ft 398 kts 296°
2026-05-08 19:18 34.20008 -101.48506 29980 ft 399 kts 296°
2026-05-08 19:19 34.22525 -101.54494 29972 ft 400 kts 296°
2026-05-08 19:19 34.25047 -101.60497 29963 ft 400 kts 296°
2026-05-08 19:20 34.27569 -101.66503 29965 ft 401 kts 296°
2026-05-08 19:20 34.30093 -101.72513 29977 ft 401 kts 296°
2026-05-08 19:21 34.32626 -101.78553 29971 ft 402 kts 296°
2026-05-08 19:21 34.35145 -101.84591 29966 ft 402 kts 296°
2026-05-08 19:22 34.37664 -101.90637 29977 ft 402 kts 296°
2026-05-08 19:22 34.40161 -101.96650 29996 ft 402 kts 296°
2026-05-08 19:23 34.42675 -102.02712 29993 ft 402 kts 296°
2026-05-08 19:23 34.45190 -102.08783 29990 ft 403 kts 296°
2026-05-08 19:24 34.47699 -102.14853 29994 ft 402 kts 296°
2026-05-08 19:24 34.50208 -102.20920 30005 ft 403 kts 296°
2026-05-08 19:25 34.52694 -102.26952 30008 ft 402 kts 297°
2026-05-08 19:25 34.55192 -102.33018 29994 ft 401 kts 297°
2026-05-08 19:26 34.57678 -102.39074 29990 ft 401 kts 297°
2026-05-08 19:26 34.60163 -102.45131 29991 ft 401 kts 297°
2026-05-08 19:27 34.62649 -102.51196 29993 ft 401 kts 297°
2026-05-08 19:27 34.65106 -102.57227 29999 ft 401 kts 297°
2026-05-08 19:28 34.67579 -102.63301 29997 ft 401 kts 297°
2026-05-08 19:28 34.70053 -102.69369 29997 ft 400 kts 297°
2026-05-08 19:29 34.72521 -102.75440 30000 ft 400 kts 297°
2026-05-08 19:29 34.74970 -102.81475 29999 ft 400 kts 297°
2026-05-08 19:30 34.77427 -102.87561 29995 ft 400 kts 298°
2026-05-08 19:30 34.79885 -102.93642 29999 ft 400 kts 298°
2026-05-08 19:31 34.82348 -102.99725 30016 ft 400 kts 298°
2026-05-08 19:31 34.84798 -103.05808 30008 ft 401 kts 298°
2026-05-08 19:32 34.87241 -103.11907 30004 ft 401 kts 298°
2026-05-08 19:32 34.89687 -103.18023 30002 ft 401 kts 298°
2026-05-08 19:33 34.92136 -103.24131 30000 ft 401 kts 298°
2026-05-08 19:33 34.94575 -103.30217 30001 ft 401 kts 298°
2026-05-08 19:34 34.97014 -103.36335 30012 ft 401 kts 298°
2026-05-08 19:34 34.99436 -103.42422 30018 ft 401 kts 298°
2026-05-08 19:35 35.01878 -103.48559 30024 ft 401 kts 298°
2026-05-08 19:35 35.04304 -103.54676 30006 ft 400 kts 298°
2026-05-08 19:36 35.06715 -103.60783 29997 ft 399 kts 298°
2026-05-08 19:36 35.09134 -103.66901 29990 ft 400 kts 298°
2026-05-08 19:37 35.11558 -103.73024 29995 ft 400 kts 298°
2026-05-08 19:37 35.13955 -103.79113 29996 ft 400 kts 298°
2026-05-08 19:38 35.16365 -103.85250 30000 ft 400 kts 298°
2026-05-08 19:38 35.18771 -103.91391 30016 ft 400 kts 298°
2026-05-08 19:39 35.21175 -103.97532 30006 ft 399 kts 298°
2026-05-08 19:39 35.23572 -104.03673 30010 ft 399 kts 299°
2026-05-08 19:40 35.25959 -104.09780 30018 ft 400 kts 299°
2026-05-08 19:40 35.28361 -104.15937 30042 ft 401 kts 299°
2026-05-08 19:41 35.30761 -104.22105 30040 ft 401 kts 299°
2026-05-08 19:41 35.33152 -104.28280 30034 ft 401 kts 299°
2026-05-08 19:42 35.35520 -104.34409 30052 ft 400 kts 299°
2026-05-08 19:42 35.37904 -104.40572 30073 ft 401 kts 299°
2026-05-08 19:43 35.40291 -104.46749 30067 ft 401 kts 298°
2026-05-08 19:43 35.42666 -104.52929 30063 ft 401 kts 298°
2026-05-08 19:44 35.45041 -104.59115 30063 ft 400 kts 298°
2026-05-08 19:44 35.47414 -104.65314 30066 ft 401 kts 298°
2026-05-08 19:45 35.49792 -104.71513 30077 ft 401 kts 298°
2026-05-08 19:45 35.52149 -104.77673 30086 ft 401 kts 298°
2026-05-08 19:46 35.54519 -104.83886 30096 ft 402 kts 298°
2026-05-08 19:46 35.58069 -104.93232 30105 ft 402 kts 298°
2026-05-08 19:47 35.60435 -104.99465 30115 ft 402 kts 298°
2026-05-08 19:47 35.62796 -105.05700 30116 ft 402 kts 298°
2026-05-08 19:48 35.65140 -105.11909 30120 ft 403 kts 298°
2026-05-08 19:48 35.67507 -105.18155 30120 ft 403 kts 298°
2026-05-08 19:49 35.69914 -105.24389 30122 ft 403 kts 299°
2026-05-08 19:49 35.72323 -105.30615 30130 ft 403 kts 298°
2026-05-08 19:50 35.74724 -105.36857 30133 ft 403 kts 298°
2026-05-08 19:50 35.77113 -105.43101 30134 ft 403 kts 298°
2026-05-08 19:51 35.79501 -105.49349 30179 ft 403 kts 298°
2026-05-08 19:51 35.81887 -105.55619 30168 ft 404 kts 298°
2026-05-08 19:52 35.84262 -105.61881 30172 ft 403 kts 298°
2026-05-08 19:52 35.86639 -105.68141 30163 ft 403 kts 298°
2026-05-08 19:53 35.88994 -105.74356 30173 ft 403 kts 298°
2026-05-08 19:53 35.91364 -105.80626 30162 ft 403 kts 298°
2026-05-08 19:54 35.93726 -105.86893 30163 ft 403 kts 298°
2026-05-08 19:54 35.95689 -105.92096 30146 ft 401 kts 298°
2026-05-08 19:55 35.98419 -105.99353 30142 ft 401 kts 298°
2026-05-08 19:55 36.00767 -106.05614 30145 ft 401 kts 298°
2026-05-08 19:56 36.02717 -106.10824 30143 ft 402 kts 298°
2026-05-08 19:56 36.05063 -106.17092 30145 ft 402 kts 298°
2026-05-08 19:57 36.07407 -106.23374 30145 ft 402 kts 298°
2026-05-08 19:57 36.09740 -106.29637 30147 ft 402 kts 298°
2026-05-08 19:58 36.12083 -106.35935 30151 ft 402 kts 298°
2026-05-08 19:58 36.14402 -106.42190 30151 ft 402 kts 298°
2026-05-08 19:59 36.16729 -106.48484 30149 ft 401 kts 298°
2026-05-08 19:59 36.19049 -106.54776 30146 ft 402 kts 298°
2026-05-08 20:00 36.21365 -106.61075 30145 ft 401 kts 297°
2026-05-08 20:00 36.23680 -106.67368 30142 ft 401 kts 297°
2026-05-08 20:01 36.25979 -106.73628 30146 ft 402 kts 297°
2026-05-08 20:01 36.28291 -106.79943 30143 ft 402 kts 297°
2026-05-08 20:02 36.30601 -106.86262 30150 ft 401 kts 297°
2026-05-08 20:02 36.32887 -106.92541 30176 ft 402 kts 297°
2026-05-08 20:03 36.35189 -106.98863 30185 ft 402 kts 297°
2026-05-08 20:03 36.37490 -107.05182 30193 ft 402 kts 297°
2026-05-08 20:04 36.39780 -107.11511 30174 ft 402 kts 297°
2026-05-08 20:04 36.42068 -107.17851 30152 ft 402 kts 297°
2026-05-08 20:05 36.44360 -107.24196 30147 ft 403 kts 297°
2026-05-08 20:05 36.46652 -107.30549 30138 ft 403 kts 297°
2026-05-08 20:06 36.48922 -107.36874 30133 ft 403 kts 297°
2026-05-08 20:06 36.51209 -107.43250 30130 ft 403 kts 297°
2026-05-08 20:07 36.53495 -107.49614 30132 ft 403 kts 297°
2026-05-08 20:07 36.55780 -107.55988 30123 ft 404 kts 297°
2026-05-08 20:08 36.58062 -107.62390 30125 ft 404 kts 297°
2026-05-08 20:08 36.60338 -107.68792 30126 ft 405 kts 296°
2026-05-08 20:09 36.62609 -107.75199 30122 ft 405 kts 296°
2026-05-08 20:09 36.64873 -107.81611 30115 ft 404 kts 296°
2026-05-08 20:10 36.67134 -107.88010 30139 ft 403 kts 296°
2026-05-08 20:10 36.69392 -107.94375 30122 ft 404 kts 297°
2026-05-08 20:11 36.71663 -108.00802 30113 ft 405 kts 296°
2026-05-08 20:11 36.73918 -108.07232 30095 ft 405 kts 296°
2026-05-08 20:12 36.76167 -108.13643 30090 ft 406 kts 296°
2026-05-08 20:12 36.78453 -108.20076 30087 ft 406 kts 296°
2026-05-08 20:13 36.80745 -108.26515 30092 ft 406 kts 296°
2026-05-08 20:13 36.83036 -108.32971 30096 ft 406 kts 296°
2026-05-08 20:14 36.85315 -108.39416 30134 ft 405 kts 296°
2026-05-08 20:14 36.87587 -108.45868 30095 ft 404 kts 296°
2026-05-08 20:15 36.89831 -108.52253 30129 ft 404 kts 296°
2026-05-08 20:15 36.92095 -108.58704 30116 ft 404 kts 296°
2026-05-08 20:16 36.94350 -108.65142 30114 ft 404 kts 296°
2026-05-08 20:16 36.96599 -108.71591 30096 ft 404 kts 296°
2026-05-08 20:17 36.98843 -108.78035 30098 ft 404 kts 296°
2026-05-08 20:17 37.01084 -108.84475 30099 ft 404 kts 296°
2026-05-08 20:18 37.03304 -108.90875 30141 ft 403 kts 296°
2026-05-08 20:18 37.05545 -108.97332 30129 ft 404 kts 296°
2026-05-08 20:19 37.07779 -109.03800 30124 ft 404 kts 295°
2026-05-08 20:19 37.10009 -109.10278 30124 ft 404 kts 295°
2026-05-08 20:20 37.12217 -109.16703 30132 ft 403 kts 295°
2026-05-08 20:20 37.14435 -109.23164 30122 ft 403 kts 295°
2026-05-08 20:21 37.16652 -109.29621 30113 ft 403 kts 295°
2026-05-08 20:21 37.18869 -109.36081 30112 ft 403 kts 295°
2026-05-08 20:22 37.21073 -109.42543 30149 ft 403 kts 295°
2026-05-08 20:22 37.22900 -109.47920 30140 ft 403 kts 295°
2026-05-08 20:23 37.25452 -109.55449 30122 ft 403 kts 295°
2026-05-08 20:23 37.27645 -109.61915 30103 ft 402 kts 295°
2026-05-08 20:24 37.29832 -109.68380 30134 ft 402 kts 295°
2026-05-08 20:24 37.32015 -109.74854 30117 ft 402 kts 295°
2026-05-08 20:25 37.34196 -109.81327 30096 ft 401 kts 295°
2026-05-08 20:25 37.36359 -109.87757 30089 ft 402 kts 295°
2026-05-08 20:26 37.38530 -109.94223 30087 ft 402 kts 295°
2026-05-08 20:26 37.40701 -110.00705 30084 ft 402 kts 295°
2026-05-08 20:27 37.42861 -110.07184 30111 ft 401 kts 295°
2026-05-08 20:27 37.45009 -110.13648 30081 ft 402 kts 295°
2026-05-08 20:28 37.47162 -110.20145 30088 ft 402 kts 295°
2026-05-08 20:28 37.49316 -110.26640 30074 ft 402 kts 295°
2026-05-08 20:29 37.51472 -110.33144 30082 ft 403 kts 295°
2026-05-08 20:29 37.53620 -110.39649 30050 ft 401 kts 294°
2026-05-08 20:30 37.55760 -110.46158 30058 ft 401 kts 294°
2026-05-08 20:30 37.57886 -110.52624 30043 ft 402 kts 294°
2026-05-08 20:31 37.60027 -110.59129 30039 ft 401 kts 294°
2026-05-08 20:31 37.62154 -110.65649 30029 ft 401 kts 294°
2026-05-08 20:32 37.64270 -110.72163 30028 ft 402 kts 294°
2026-05-08 20:32 37.66398 -110.78681 30038 ft 402 kts 294°
2026-05-08 20:33 37.68518 -110.85201 30038 ft 402 kts 294°
2026-05-08 20:33 37.70636 -110.91739 30039 ft 402 kts 294°
2026-05-08 20:34 37.72741 -110.98283 30067 ft 402 kts 294°
2026-05-08 20:35 37.75914 -111.08099 30057 ft 402 kts 294°
2026-05-08 20:35 37.78031 -111.14649 30055 ft 403 kts 294°
2026-05-08 20:36 37.80127 -111.21165 30056 ft 402 kts 294°
2026-05-08 20:36 37.82226 -111.27749 30065 ft 402 kts 294°
2026-05-08 20:37 37.84311 -111.34321 30114 ft 403 kts 294°
2026-05-08 20:37 37.86408 -111.40886 30130 ft 402 kts 294°
2026-05-08 20:38 37.88485 -111.47404 30133 ft 402 kts 294°
2026-05-08 20:38 37.90566 -111.53959 30139 ft 401 kts 294°
2026-05-08 20:39 37.92640 -111.60512 30142 ft 401 kts 294°
2026-05-08 20:39 37.94707 -111.67063 30151 ft 400 kts 294°
2026-05-08 20:40 37.96768 -111.73613 30162 ft 399 kts 294°
2026-05-08 20:40 37.98824 -111.80163 30178 ft 399 kts 294°
2026-05-08 20:41 38.00531 -111.85613 30179 ft 400 kts 294°
2026-05-08 20:41 38.02911 -111.93228 30182 ft 399 kts 294°
2026-05-08 20:42 38.04614 -111.98668 30181 ft 399 kts 293°
2026-05-08 20:42 38.06651 -112.05216 30181 ft 398 kts 293°
2026-05-08 20:43 38.08684 -112.11762 30188 ft 398 kts 293°
2026-05-08 20:43 38.10718 -112.18314 30208 ft 399 kts 293°
2026-05-08 20:44 38.12750 -112.24880 30202 ft 399 kts 293°
2026-05-08 20:44 38.14761 -112.31407 30198 ft 399 kts 293°
2026-05-08 20:45 38.16775 -112.37979 30200 ft 399 kts 293°
2026-05-08 20:45 38.18792 -112.44535 30183 ft 398 kts 293°
2026-05-08 20:46 38.20809 -112.51109 30167 ft 399 kts 293°
2026-05-08 20:46 38.22823 -112.57683 30159 ft 399 kts 293°
2026-05-08 20:47 38.24824 -112.64229 30150 ft 399 kts 293°
2026-05-08 20:47 38.26821 -112.70811 30141 ft 399 kts 293°
2026-05-08 20:48 38.28820 -112.77402 30134 ft 399 kts 293°
2026-05-08 20:48 38.30819 -112.83998 30128 ft 399 kts 293°
2026-05-08 20:49 38.32814 -112.90604 30124 ft 399 kts 293°
2026-05-08 20:49 38.34789 -112.97182 30123 ft 399 kts 292°
2026-05-08 20:50 38.36059 -113.04073 30122 ft 404 kts 275°
2026-05-08 20:50 38.36133 -113.11241 30135 ft 405 kts 274°
2026-05-08 20:51 38.36203 -113.18423 30124 ft 406 kts 274°
2026-05-08 20:51 38.36271 -113.25623 30118 ft 406 kts 274°
2026-05-08 20:52 38.36339 -113.32816 30114 ft 406 kts 274°
2026-05-08 20:52 38.36395 -113.39970 30114 ft 406 kts 273°
2026-05-08 20:53 38.36442 -113.47166 30113 ft 406 kts 274°
2026-05-08 20:53 38.36490 -113.54360 30113 ft 406 kts 273°
2026-05-08 20:54 38.36530 -113.61569 30123 ft 406 kts 273°
2026-05-08 20:54 38.36563 -113.68774 30142 ft 407 kts 273°
2026-05-08 20:55 38.36599 -113.75988 30135 ft 407 kts 273°
2026-05-08 20:55 38.36622 -113.83220 30131 ft 407 kts 273°
2026-05-08 20:56 38.36650 -113.90393 30136 ft 407 kts 273°
2026-05-08 20:56 38.36675 -113.97590 30159 ft 407 kts 273°
2026-05-08 20:57 38.36690 -114.04809 30146 ft 407 kts 273°
2026-05-08 20:57 38.36695 -114.12023 30141 ft 407 kts 273°
2026-05-08 20:58 38.36699 -114.19192 30138 ft 406 kts 273°
2026-05-08 20:58 38.36705 -114.26395 30150 ft 406 kts 272°
2026-05-08 20:59 38.36700 -114.33599 30144 ft 406 kts 272°
2026-05-08 20:59 38.36696 -114.40800 30142 ft 406 kts 272°
2026-05-08 21:00 38.36688 -114.47993 30129 ft 406 kts 272°
2026-05-08 21:00 38.36671 -114.55188 30123 ft 406 kts 272°
2026-05-08 21:01 38.36646 -114.62385 30120 ft 406 kts 272°
2026-05-08 21:01 38.36626 -114.69592 30124 ft 406 kts 272°
2026-05-08 21:02 38.36602 -114.76769 30125 ft 407 kts 272°
2026-05-08 21:02 38.36569 -114.83985 30129 ft 407 kts 272°
2026-05-08 21:03 38.36531 -114.91200 30132 ft 407 kts 272°
2026-05-08 21:03 38.36489 -114.98361 30132 ft 407 kts 271°
2026-05-08 21:04 38.36438 -115.05590 30133 ft 407 kts 271°
2026-05-08 21:04 38.36383 -115.12825 30132 ft 408 kts 271°
2026-05-08 21:05 38.36332 -115.20058 30136 ft 408 kts 271°
2026-05-08 21:05 38.36277 -115.27237 30135 ft 408 kts 271°
2026-05-08 21:06 38.36212 -115.34464 30141 ft 407 kts 271°
2026-05-08 21:06 38.36140 -115.41687 30146 ft 407 kts 271°
2026-05-08 21:07 38.36068 -115.48916 30162 ft 408 kts 271°
2026-05-08 21:07 38.35994 -115.56134 30188 ft 408 kts 270°
2026-05-08 21:08 38.35916 -115.63357 30180 ft 408 kts 270°
2026-05-08 21:08 38.35827 -115.70534 30174 ft 407 kts 270°
2026-05-08 21:09 38.35732 -115.77749 30169 ft 407 kts 270°
2026-05-08 21:09 38.35636 -115.84973 30165 ft 407 kts 270°
2026-05-08 21:10 38.35533 -115.92177 30161 ft 407 kts 270°
2026-05-08 21:10 38.35427 -115.99385 30160 ft 407 kts 270°
2026-05-08 21:11 38.35321 -116.06585 30155 ft 406 kts 270°
2026-05-08 21:11 38.35203 -116.13788 30158 ft 407 kts 270°
2026-05-08 21:12 38.35084 -116.20991 30171 ft 406 kts 270°
2026-05-08 21:12 38.34965 -116.28151 30189 ft 407 kts 270°
2026-05-08 21:13 38.34851 -116.35366 30180 ft 407 kts 270°
2026-05-08 21:13 38.34722 -116.42582 30178 ft 407 kts 269°
2026-05-08 21:14 38.34581 -116.49800 30178 ft 407 kts 269°
2026-05-08 21:14 38.34446 -116.57030 30182 ft 407 kts 270°
2026-05-08 21:15 38.34306 -116.64250 30183 ft 407 kts 269°
2026-05-08 21:15 38.34153 -116.71416 30188 ft 406 kts 269°
2026-05-08 21:16 38.34002 -116.78599 30187 ft 406 kts 269°
2026-05-08 21:16 38.33843 -116.85792 30187 ft 406 kts 269°
2026-05-08 21:17 38.33676 -116.92970 30188 ft 405 kts 269°
2026-05-08 21:17 38.33511 -117.00148 30188 ft 405 kts 269°
2026-05-08 21:18 38.33347 -117.07319 30187 ft 405 kts 269°
2026-05-08 21:18 38.33172 -117.14489 30187 ft 405 kts 269°
2026-05-08 21:19 38.32990 -117.21674 30185 ft 405 kts 269°
2026-05-08 21:19 38.33243 -117.28818 30182 ft 404 kts 282°
2026-05-08 21:20 38.35031 -117.35551 30178 ft 404 kts 290°
2026-05-08 21:20 38.37007 -117.42253 30174 ft 404 kts 290°
2026-05-08 21:21 38.38959 -117.48974 30171 ft 404 kts 290°
2026-05-08 21:21 38.40902 -117.55705 30167 ft 404 kts 290°
2026-05-08 21:22 38.42852 -117.62435 30162 ft 405 kts 290°
2026-05-08 21:22 38.44812 -117.69193 30160 ft 409 kts 290°
2026-05-08 21:23 38.46770 -117.75973 30156 ft 406 kts 290°
2026-05-08 21:23 38.48715 -117.82728 30155 ft 405 kts 290°
2026-05-08 21:24 38.50651 -117.89485 30172 ft 405 kts 290°
2026-05-08 21:24 38.52581 -117.96257 30154 ft 405 kts 290°
2026-05-08 21:25 38.54507 -118.03023 30172 ft 405 kts 290°
2026-05-08 21:25 38.56418 -118.09749 30195 ft 405 kts 289°
2026-05-08 21:26 38.58168 -118.16599 30184 ft 405 kts 284°
2026-05-08 21:26 38.59598 -118.23560 30177 ft 404 kts 284°
2026-05-08 21:27 38.61026 -118.30519 30184 ft 404 kts 284°
2026-05-08 21:27 38.62438 -118.37437 30164 ft 404 kts 284°
2026-05-08 21:28 38.63859 -118.44387 30181 ft 403 kts 284°
2026-05-08 21:28 38.65026 -118.50152 30161 ft 402 kts 284°
2026-05-08 21:29 38.66422 -118.57076 30150 ft 402 kts 284°
2026-05-08 21:29 38.67816 -118.63999 30151 ft 401 kts 284°
2026-05-08 21:30 38.69209 -118.70923 30153 ft 401 kts 284°
2026-05-08 21:30 38.70600 -118.77843 30178 ft 401 kts 284°
2026-05-08 21:31 38.71979 -118.84717 30170 ft 400 kts 284°
2026-05-08 21:31 38.73360 -118.91620 30164 ft 400 kts 284°
2026-05-08 21:32 38.74734 -118.98530 30156 ft 400 kts 284°
2026-05-08 21:32 38.76101 -119.05430 30153 ft 399 kts 284°
2026-05-08 21:33 38.77456 -119.12328 30154 ft 399 kts 284°
2026-05-08 21:33 38.78803 -119.19192 30153 ft 399 kts 284°
2026-05-08 21:34 38.80156 -119.26100 30160 ft 399 kts 284°
2026-05-08 21:34 38.81502 -119.32992 30193 ft 399 kts 284°
2026-05-08 21:35 38.82844 -119.39904 30183 ft 399 kts 284°
2026-05-08 21:35 38.84188 -119.46816 30166 ft 400 kts 284°
2026-05-08 21:35 38.84867 -119.50316 29919 ft 406 kts 283°
2026-05-08 21:36 38.85550 -119.53850 29672 ft 407 kts 283°
2026-05-08 21:36 38.86228 -119.57376 29460 ft 407 kts 283°
2026-05-08 21:36 38.86908 -119.60904 29209 ft 405 kts 283°
2026-05-08 21:36 38.87583 -119.64407 28958 ft 404 kts 283°
2026-05-08 21:37 38.88245 -119.67855 28713 ft 402 kts 283°
2026-05-08 21:37 38.88913 -119.71339 28478 ft 399 kts 283°
2026-05-08 21:37 38.89570 -119.74769 28030 ft 393 kts 283°
2026-05-08 21:37 38.90217 -119.78157 27552 ft 387 kts 283°
2026-05-08 21:38 38.90851 -119.81496 27102 ft 382 kts 283°
2026-05-08 21:38 38.91475 -119.84792 26648 ft 377 kts 283°
2026-05-08 21:38 38.92089 -119.88043 26219 ft 372 kts 283°
2026-05-08 21:38 38.92696 -119.91252 25795 ft 367 kts 283°
2026-05-08 21:39 38.93297 -119.94418 25383 ft 363 kts 283°
2026-05-08 21:39 38.93889 -119.97546 24978 ft 358 kts 283°
2026-05-08 21:39 38.94461 -120.00592 24574 ft 353 kts 283°
2026-05-08 21:39 38.95043 -120.03680 24187 ft 349 kts 283°
2026-05-08 21:40 38.95605 -120.06667 23798 ft 348 kts 283°
2026-05-08 21:40 38.96172 -120.09677 23413 ft 346 kts 283°
2026-05-08 21:40 38.96733 -120.12672 23030 ft 344 kts 283°
2026-05-08 21:41 38.97845 -120.18611 22249 ft 339 kts 283°
2026-05-08 21:41 38.98393 -120.21554 21854 ft 337 kts 283°
2026-05-08 21:41 38.98939 -120.24480 21436 ft 335 kts 283°
2026-05-08 21:41 38.99481 -120.27390 21013 ft 333 kts 282°
2026-05-08 21:42 39.00022 -120.30281 20587 ft 332 kts 283°
2026-05-08 21:42 39.00570 -120.33154 20150 ft 330 kts 283°
2026-05-08 21:42 39.01119 -120.35981 19717 ft 328 kts 283°
2026-05-08 21:42 39.01673 -120.38825 19269 ft 326 kts 283°
2026-05-08 21:43 39.02221 -120.41644 18834 ft 324 kts 283°
2026-05-08 21:43 39.02762 -120.44444 18396 ft 321 kts 283°
2026-05-08 21:43 39.03298 -120.47234 17891 ft 320 kts 283°
2026-05-08 21:43 39.03833 -120.50011 17442 ft 318 kts 283°
2026-05-08 21:44 39.04360 -120.52764 17014 ft 316 kts 283°
2026-05-08 21:44 39.04879 -120.55502 16594 ft 314 kts 283°
2026-05-08 21:44 39.05393 -120.58227 16150 ft 313 kts 283°
2026-05-08 21:44 39.05904 -120.60941 15718 ft 312 kts 283°
2026-05-08 21:45 39.06410 -120.63614 15300 ft 310 kts 283°
2026-05-08 21:45 39.06897 -120.66318 14886 ft 309 kts 279°
2026-05-08 21:45 39.07026 -120.69071 14444 ft 307 kts 266°
2026-05-08 21:45 39.06698 -120.71785 14014 ft 307 kts 255°
2026-05-08 21:46 39.06040 -120.74395 13584 ft 306 kts 252°
2026-05-08 21:46 39.05363 -120.76984 13161 ft 305 kts 252°
2026-05-08 21:46 39.04689 -120.79567 12698 ft 305 kts 252°
2026-05-08 21:46 39.04016 -120.82147 12267 ft 303 kts 252°
2026-05-08 21:47 39.03351 -120.84708 11849 ft 301 kts 252°
2026-05-08 21:47 39.02696 -120.87232 11437 ft 301 kts 252°
2026-05-08 21:47 39.02036 -120.89782 11011 ft 299 kts 252°
2026-05-08 21:47 39.01376 -120.92320 10593 ft 298 kts 252°
2026-05-08 21:48 39.00721 -120.94837 10250 ft 294 kts 252°
2026-05-08 21:48 39.00076 -120.97306 10013 ft 290 kts 252°
2026-05-08 21:48 38.99432 -120.99764 9877 ft 290 kts 252°
2026-05-08 21:48 38.98787 -121.02224 9762 ft 290 kts 251°
2026-05-08 21:49 38.98145 -121.04653 9518 ft 290 kts 251°
2026-05-08 21:49 38.97498 -121.07101 9153 ft 288 kts 251°
2026-05-08 21:49 38.96857 -121.09534 8766 ft 287 kts 251°
2026-05-08 21:49 38.96215 -121.11962 8370 ft 285 kts 251°
2026-05-08 21:50 38.95581 -121.14372 7988 ft 284 kts 251°
2026-05-08 21:50 38.94951 -121.16768 7612 ft 282 kts 251°
2026-05-08 21:50 38.94323 -121.19149 7209 ft 282 kts 251°
2026-05-08 21:50 38.93692 -121.21528 6811 ft 281 kts 251°
2026-05-08 21:51 38.93061 -121.23896 6422 ft 279 kts 251°
2026-05-08 21:51 38.92435 -121.26249 6043 ft 278 kts 251°
2026-05-08 21:51 38.91812 -121.28597 5654 ft 277 kts 251°
2026-05-08 21:51 38.91193 -121.30928 5266 ft 275 kts 251°
2026-05-08 21:52 38.90579 -121.33239 4888 ft 272 kts 251°
2026-05-08 21:52 38.89973 -121.35518 4531 ft 268 kts 251°
2026-05-08 21:52 38.89378 -121.37751 4166 ft 268 kts 251°
2026-05-08 21:52 38.88776 -121.39992 3996 ft 265 kts 251°
2026-05-08 21:53 38.88152 -121.42228 4012 ft 267 kts 250°
2026-05-08 21:53 38.87513 -121.44475 4005 ft 268 kts 250°
2026-05-08 21:53 38.86870 -121.46714 4010 ft 267 kts 250°
2026-05-08 21:53 38.86236 -121.48915 4012 ft 257 kts 250°
2026-05-08 21:54 38.85633 -121.51008 4013 ft 242 kts 250°
2026-05-08 21:54 38.85072 -121.52968 4026 ft 228 kts 251°
2026-05-08 21:54 38.84532 -121.54866 4020 ft 225 kts 250°
2026-05-08 21:54 38.84001 -121.56727 4016 ft 225 kts 250°
2026-05-08 21:55 38.83334 -121.58539 4008 ft 226 kts 232°
2026-05-08 21:55 38.82085 -121.59723 4015 ft 228 kts 199°
2026-05-08 21:55 38.80542 -121.59971 4000 ft 219 kts 182°
2026-05-08 21:56 38.77528 -121.59897 2916 ft 214 kts 179°
2026-05-08 21:56 38.76042 -121.59849 2149 ft 215 kts 182°
2026-05-08 21:56 38.74518 -121.59960 1280 ft 221 kts 183°
2026-05-08 21:56 38.73007 -121.60118 625 ft 210 kts 180°
2026-05-08 21:57 38.71646 -121.60085 258 ft 186 kts 175°
2026-05-08 21:57 38.70435 -121.60112 28 ft 160 kts 178°
2026-05-08 21:57 38.69510 -121.60133 22 ft 92 kts 180°
2026-05-08 21:57 38.68989 -121.60137 30 ft 57 kts 182°
2026-05-08 21:58 38.68653 -121.60144 28 ft 40 kts 181°
2026-05-08 21:58 38.68444 -121.60143 24 ft 19 kts 174°
2026-05-08 21:58 38.68386 -121.60028 23 ft 13 kts 92°
2026-05-08 21:58 38.68386 -121.59936 23 ft 11 kts 88°
2026-05-08 21:59 38.68440 -121.59879 26 ft 11 kts
2026-05-08 21:59 38.68525 -121.59884 25 ft 12 kts
2026-05-08 21:59 38.68619 -121.59882 23 ft 15 kts
2026-05-08 21:59 38.68727 -121.59880 26 ft 17 kts
2026-05-08 22:00 38.68847 -121.59879 23 ft 18 kts 360°
2026-05-08 22:00 38.68982 -121.59876 24 ft 20 kts
2026-05-08 22:00 38.69127 -121.59874 23 ft 22 kts
2026-05-08 22:00 38.69278 -121.59871 23 ft 22 kts
2026-05-08 22:01 38.69434 -121.59867 23 ft 15 kts
2026-05-08 22:01 38.69463 -121.59792 23 ft 9 kts 89°
2026-05-08 22:01 38.69464 -121.59701 23 ft 11 kts 90°
2026-05-08 22:01 38.69487 -121.59605 23 ft 12 kts 28°
2026-05-08 22:02 38.69579 -121.59598 23 ft 14 kts 359°
2026-05-08 22:02 38.69682 -121.59583 25 ft 15 kts 36°
2026-05-08 22:02 38.69698 -121.59450 23 ft 16 kts 90°
2026-05-08 22:02 38.69697 -121.59295 23 ft 18 kts 90°
2026-05-08 22:03 38.69695 -121.59128 23 ft 17 kts 90°
2026-05-08 22:03 38.69693 -121.58968 23 ft 16 kts 92°
2026-05-08 22:03 38.69637 -121.58906 23 ft 11 kts 148°
2026-05-08 22:03 38.69618 -121.58806 26 ft 13 kts 90°
2026-05-08 22:04 38.69617 -121.58680 23 ft 15 kts 91°
2026-05-08 22:04 38.69551 -121.58613 24 ft 15 kts 186°
2026-05-08 22:04 38.69458 -121.58614 23 ft 13 kts 179°
2026-05-08 22:04 38.69405 -121.58604 23 ft 8 kts 171°
2026-05-08 22:05 38.69367 -121.58630 25 ft 2 kts 221°
2026-05-08 22:05 38.69352 -121.58647 23 ft 1 kts 222°
2026-05-08 22:05 38.69348 -121.58652 23 ft 1 kts 222°